Regional Weather Roundup
Issued by NWS Sterling, VA

Home | Current Version | Previous Version | Graphics & Text | Print | Product List | Glossary Off
Versions: 1 2 3 4 5 6 7 8 9 10 11 12 13 14 15 16 17 18 19 20 21 22 23 24 25 26 27 28 29 30 31 32 33 34 35 36 37 38 39 40 41 42 43 44 45 46 47 48 49 50

357
ASUS41 KLWX 110110
RWRLWX

REGIONAL WEATHER ROUNDUP
NATIONAL WEATHER SERVICE BALTIMORE MD/WASHINGTON DC
800 PM EST WED FEB 10 2016

Note: "FAIR" indicates few or no clouds below 12,000 feet
with no significant weather and/or obstructions to visibility.
 TC=TEMPERATURE CELSIUS

 * =Non NWS site. Station does not report precipitation (e.g. rain,
    snow, etc.), thunder, or fog.

DCZ001-MDZ009-015-VAZ040>042-051-053>054-110200-
WASHINGTON METRO

CITY           SKY/WX    TMP DP  RH WIND       PRES   REMARKS
WASHINGTON NAT CLOUDY    28  11  48 NW13G21   29.92R WCI  17
DULLES         CLOUDY    25  10  53 NW14      29.91R WCI  13
ANDREWS AFB    CLOUDY    27  11  51 NW21      29.88R WCI  13
FT BELVOIR     CLOUDY    27  10  47 NW16      29.92R WCI  15
QUANTICO       CLOUDY    29  12  49 NW13      29.95R WCI  19
COLLEGE PARK*  CLOUDY    28  12  50 W12G23    29.90R WCI  18
LEESBURG*      CLOUDY    27  18  69 NW18G29   29.91S WCI  13
MANASSAS*      CLOUDY    27  14  59 NW10      29.92S WCI  17
GAITHERSBURG*  CLOUDY    23   9  54 NW12G21   29.91S WCI  12

$$

MDZ006>007-011-014-110200-
BALTIMORE METRO

CITY           SKY/WX    TMP DP  RH WIND       PRES   REMARKS
BWI AIRPORT    CLOUDY    27  11  51 W22G30    29.87R WCI  13
MD SCIENCE CTR   N/A     28   9  44 MISG      29.87R
MARTIN STATE   MOCLDY    30  16  55 W21G26    29.88R WCI  17
ANNAPOLIS      CLOUDY    29  14  53 NW14G24   29.88R WCI  18
FORT MEADE*    CLOUDY    28  12  50 NW18G24   29.91R WCI  16

$$

MDZ012-015-019>023-110200-
MARYLAND EASTERN SHORE

CITY           SKY/WX    TMP DP  RH WIND       PRES   REMARKS
OCEAN CITY     CLOUDY    29  23  78 CALM      29.83S
SALISBURY      CLOUDY    34  20  56 N8        29.83R WCI  27
BAY BRIDGE AP*   N/A     32  12  43 W16G24    29.87R WCI  21
CAMBRIDGE*     CLOUDY    32  14  47 NW13G23   29.86R WCI  22
EASTON*        PTCLDY    32  16  51 NW12      29.89R WCI  23

$$

MDZ017>025-110200-
SOUTHERN MARYLAND

CITY           SKY/WX    TMP DP  RH WIND       PRES   REMARKS
PATUXENT RIVER LGT SNOW  29  20  69 NW20G28   29.88R FOG     WCI  16
ST INIGOES     LGT SNOW  28  24  85 NW15G23   29.89R FOG     WCI  16
LEONARDTOWN*   CLOUDY    28  19  69 NW8       29.90R WCI  20

$$

MDZ003>005-110200-
NORTH CENTRAL MARYLAND

CITY           SKY/WX    TMP DP  RH WIND       PRES   REMARKS
FREDERICK*     CLOUDY    25  18  74 W13G18    29.93R WCI  13
HAGERSTOWN APT MOCLDY    22  10  60 W13       29.87S WCI  10
WESTMINSTER*   CLOUDY    23  18  80 W12       29.84S WCI  12

$$

MDZ501>502-110200-
WESTERN MARYLAND

CITY           SKY/WX    TMP DP  RH WIND       PRES   REMARKS
OAKLAND*       CLOUDY    10   7  85 W13G20    29.74R FOG     WCI  -5
CUMBERLAND*    CLOUDY    23   9  54 SW3G16    29.95R

$$

VAZ025>031-110200-
SHENANDOAH VALLEY

CITY           SKY/WX    TMP DP  RH WIND       PRES   REMARKS
WINCHESTER*    CLOUDY    25  12  58 W12       29.90R WCI  14
FRONT ROYAL*   CLOUDY    25   9  50 W6        29.90R
LURAY*         CLOUDY    23   5  46 W9G16     29.91R WCI  13
NEW MARKET*    CLOUDY    22   4  45 W6        29.91R
STAUNTON*      FAIR      25   6  43 NW5       29.93R
WAYNESBORO*    FAIR      20   0  40 NW7       29.89R

$$

WVZ021-048>050-054>055-110200-
EASTERN WEST VIRGINIA PANHANDLE

CITY           SKY/WX    TMP DP  RH WIND       PRES   REMARKS
MARTINSBURG    CLOUDY    22  11  62 W10       29.90R WCI  11
PETERSBURG*    MOCLDY    22   7  54 W14       29.93R WCI   9

$$

VAZ036>039-050-110200-
CENTRAL FOOTHILLS

CITY           SKY/WX    TMP DP  RH WIND       PRES   REMARKS
CHARLOTTESVILL MOCLDY    26   3  37 NW10G22   29.92R WCI  16
CULPEPER*      CLOUDY    26   8  47 W5        29.94R
ORANGE*        CLOUDY    28   9  43 SW9G17    29.94R WCI  20
GORDONSVILLE*  CLOUDY    27   6  41 W6        29.92R
WARRENTON*     CLOUDY    28  14  56 W10G20    29.92S WCI  18

$$

VAZ055>057-110200-
NORTH AND CENTRAL PIEDMONT

CITY           SKY/WX    TMP DP  RH WIND       PRES   REMARKS
FREDERICKSBRG* CLOUDY    29  14  53 NW15      29.93R WCI  17
STAFFORD*      CLOUDY    27  12  54 NW15      29.97R WCI  15

$$

NCZ024-NYZ072-PAZ021-071-VAZ022-071-110200-
OTHER REGIONAL OBSERVATIONS

CITY           SKY/WX    TMP DP  RH WIND       PRES   REMARKS
NEW YORK CITY  CLEAR     33  16  49 VRB5G21   29.74S
PHILADELPHIA   CLOUDY    32  13  45 W15       29.82S WCI  22
PITTSBURGH     LGT SNOW  17  11  77 W10       29.88R WCI   5
ROANOKE        MOCLDY    22   4  46 NW14G25   29.99R WCI   9
RICHMOND       CLOUDY    31   8  38 W13       29.91R WCI  21
RALEIGH        PTCLDY    30   7  37 NW8       29.99R WCI  22

$$

ANZ530>537-110200-
MARINE OBSERVATIONS

STATION/POSITION TIME  TEMP    WIND        PRES
                       AIR SEA DIR/SP/G
                 (UTC) (F)     (DEG/KT/KT) (MB)
THOMAS PT LIGHT  NOT AVBL
BALT KEY BRIDGE  0000   30                 1010.8R
COVE POINT       0000   32                 1011.0R
LEWISETTA        0000   38 41              1010.2R
SOLOMONS ISLAND  0000   33 41                N/A
PINEY POINT      0000          340/ 27/ 31   N/A

$$





USA.gov is the U.S. government's official web portal to all federal, state and local government web resources and services.